Tracking 19562 objects as of 25-Mar-2019
HD Live streaming from Space Station
objects crossing your sky now

COSMOS 1565

Track COSMOS 1565 now!
10-day predictions
COSMOS 1565 is classified as:


NORAD ID: 15004
Int'l Code: 1984-052G
Perigee: 1,414.4 km
Apogee: 1,483.7 km
Inclination: 74.0 °
Period: 114.7 minutes
Semi major axis: 7820 km
RCS: 0.7124 m2 (medium)
Launch date: May 28, 1984
Source: Commonwealth of Independent States (former USSR) (CIS)
Launch site: PLESETSK MISSILE AND SPACE COMPLEX (PKMTR)
aabbcc
Your satellite tracking list
Your tracking list is empty




NASA's NSSDC Master Catalog

Two Line Element Set (TLE):
1 15004U 84052G   19083.90001434 -.00000021 +00000-0 -25379-4 0  9996
2 15004 074.0126 055.1579 0044351 270.0548 152.6602 12.55416561595666
Source of the keplerian elements: AFSPC